When you browse on this site, cookies collect data to enhance your experience and personalize the content and advertising you see.
Visit our Privacy Policy to learn more. By continuing to use the site, you agree to this use of cookies and data.
  • In Netherlands
  • List of Countries
  • For 7 days
  • Water Temperature
  • Satellite Maps
  • Weather Map
  • Weather Widgets
  • user-avatar
    Login

    Hourly Weather Bedford

    Today, 27 June, Thursday

    Time Temperature Precipitation Wind Pressure Humidity
    00:00 +11°C° 0 mm 4 mps 770 mmHg 94%
    01:00 +11°C° 0 mm 4 mps 770 mmHg 95%
    02:00 +11°C° 0 mm 4 mps 770 mmHg 95%
    03:00 +9°C° 0 mm 5 mps 769 mmHg 95%
    04:00 +10°C° 0 mm 5 mps 769 mmHg 93%
    05:00 +10°C° 0 mm 5 mps 769 mmHg 91%
    06:00 +12°C° 0 mm 5 mps 769 mmHg 89%
    07:00 +13°C° 0 mm 5 mps 770 mmHg 86%
    08:00 +15°C° 0 mm 5 mps 770 mmHg 83%
    09:00 +16°C° 0 mm 5 mps 770 mmHg 80%
    10:00 +17°C° 0 mm 6 mps 770 mmHg 80%
    11:00 +19°C° 0 mm 6 mps 770 mmHg 80%
    12:00 +21°C° 0 mm 6 mps 770 mmHg 80%
    13:00 +21°C° 0 mm 6 mps 769 mmHg 79%
    14:00 +21°C° 0 mm 6 mps 769 mmHg 78%
    15:00 +21°C° 0 mm 6 mps 769 mmHg 78%
    16:00 +20°C° 0 mm 6 mps 769 mmHg 80%
    17:00 +20°C° 0 mm 6 mps 768 mmHg 81%
    18:00 +19°C° 0 mm 6 mps 768 mmHg 83%
    19:00 +16°C° 0 mm 6 mps 768 mmHg 86%
    20:00 +14°C° 0 mm 5 mps 768 mmHg 90%
    21:00 +13°C° 0 mm 5 mps 769 mmHg 93%
    22:00 +12°C° 0 mm 5 mps 768 mmHg 94%
    23:00 +10°C° 0 mm 5 mps 768 mmHg 95%

    Tomorrow, 28 June, Friday

    Time Temperature Precipitation Wind Pressure Humidity
    00:00 +10°C° 0 mm 5 mps 768 mmHg 97%
    01:00 +10°C° 0 mm 4 mps 768 mmHg 97%
    02:00 +10°C° 0 mm 4 mps 768 mmHg 97%
    03:00 +10°C° 0 mm 4 mps 767 mmHg 97%
    04:00 +11°C° 0 mm 4 mps 767 mmHg 96%
    05:00 +11°C° 0 mm 4 mps 767 mmHg 95%
    06:00 +12°C° 0 mm 5 mps 767 mmHg 93%
    07:00 +14°C° 0 mm 5 mps 767 mmHg 90%
    08:00 +15°C° 0 mm 5 mps 766 mmHg 87%
    09:00 +17°C° 0 mm 5 mps 766 mmHg 83%
    10:00 +19°C° 0 mm 5 mps 766 mmHg 81%
    11:00 +20°C° 0 mm 5 mps 766 mmHg 79%
    12:00 +22°C° 0 mm 6 mps 765 mmHg 76%
    13:00 +22°C° 0 mm 5 mps 765 mmHg 76%
    14:00 +22°C° 0 mm 5 mps 765 mmHg 76%
    15:00 +22°C° 0 mm 5 mps 765 mmHg 75%
    16:00 +22°C° 0 mm 5 mps 764 mmHg 77%
    17:00 +21°C° 0 mm 5 mps 764 mmHg 78%
    18:00 +20°C° 0 mm 5 mps 763 mmHg 80%
    19:00 +18°C° 0 mm 4 mps 763 mmHg 84%
    20:00 +15°C° 0 mm 4 mps 763 mmHg 87%
    21:00 +14°C° 0 mm 4 mps 763 mmHg 91%
    22:00 +13°C° 0 mm 4 mps 763 mmHg 92%
    23:00 +12°C° 0 mm 3 mps 763 mmHg 93%

    Day after tomorrow, 29 June, Saturday

    Time Temperature Precipitation Wind Pressure Humidity
    00:00 +12°C° 0 mm 3 mps 763 mmHg 94%
    01:00 +12°C° 0 mm 3 mps 762 mmHg 94%
    02:00 +12°C° 0 mm 3 mps 762 mmHg 95%
    03:00 +12°C° 0 mm 3 mps 761 mmHg 95%
    04:00 +13°C° 0 mm 3 mps 761 mmHg 93%
    05:00 +16°C° 0 mm 3 mps 761 mmHg 92%
    06:00 +17°C° 0 mm 3 mps 760 mmHg 90%
    07:00 +19°C° 0 mm 4 mps 760 mmHg 87%
    08:00 +20°C° 0 mm 4 mps 760 mmHg 84%
    09:00 +22°C° 0 mm 4 mps 760 mmHg 81%
    10:00 +23°C° 0 mm 4 mps 759 mmHg 77%
    11:00 +26°C° 0 mm 4 mps 759 mmHg 73%
    12:00 +27°C° 0 mm 4 mps 758 mmHg 70%
    13:00 +28°C° 0 mm 4 mps 758 mmHg 68%
    14:00 +28°C° 0 mm 4 mps 758 mmHg 67%
    15:00 +29°C° 0 mm 4 mps 757 mmHg 66%
    16:00 +28°C° 0 mm 4 mps 757 mmHg 71%
    17:00 +27°C° 0 mm 4 mps 756 mmHg 75%
    18:00 +26°C° 0 mm 3 mps 756 mmHg 79%
    19:00 +24°C° 0 mm 3 mps 756 mmHg 83%
    20:00 +22°C° 0 mm 4 mps 756 mmHg 88%
    21:00 +20°C° 0 mm 4 mps 756 mmHg 92%
    22:00 +19°C° 0 mm 4 mps 757 mmHg 89%
    23:00 +19°C° 0 mm 4 mps 757 mmHg 86%

    30 June, Sunday

    Time Temperature Precipitation Wind Pressure Humidity
    00:00 +18°C° 0 mm 4 mps 757 mmHg 83%
    01:00 +15°C° 0 mm 4 mps 757 mmHg 86%
    02:00 +14°C° 0 mm 3 mps 757 mmHg 89%
    03:00 +12°C° 0 mm 3 mps 757 mmHg 92%
    04:00 +13°C° 0 mm 4 mps 758 mmHg 91%
    05:00 +13°C° 0 mm 4 mps 758 mmHg 91%
    06:00 +14°C° 0 mm 4 mps 758 mmHg 90%
    07:00 +15°C° 0 mm 4 mps 758 mmHg 87%
    08:00 +18°C° 0 mm 4 mps 759 mmHg 84%
    09:00 +19°C° 0 mm 4 mps 759 mmHg 81%
    10:00 +20°C° 0 mm 4 mps 759 mmHg 78%
    11:00 +21°C° 0 mm 4 mps 759 mmHg 75%
    12:00 +22°C° 0 mm 5 mps 759 mmHg 72%
    13:00 +22°C° 0.1 mm 5 mps 759 mmHg 72%
    14:00 +22°C° 0.1 mm 5 mps 759 mmHg 72%
    15:00 +23°C° 0.1 mm 5 mps 759 mmHg 72%
    16:00 +22°C° 0.1 mm 5 mps 759 mmHg 75%
    17:00 +21°C° 0.1 mm 5 mps 759 mmHg 78%
    18:00 +20°C° 0.1 mm 5 mps 759 mmHg 81%
    19:00 +19°C° 0 mm 5 mps 759 mmHg 84%
    20:00 +17°C° 0 mm 5 mps 759 mmHg 87%
    21:00 +15°C° 0 mm 4 mps 759 mmHg 90%
    22:00 +14°C° 0 mm 4 mps 760 mmHg 91%
    23:00 +13°C° 0 mm 4 mps 760 mmHg 92%

    1 July, Monday

    Time Temperature Precipitation Wind Pressure Humidity
    00:00 +13°C° 0 mm 4 mps 760 mmHg 93%
    01:00 +12°C° 0 mm 4 mps 760 mmHg 94%
    02:00 +11°C° 0 mm 4 mps 760 mmHg 95%
    03:00 +11°C° 0 mm 3 mps 760 mmHg 97%
    04:00 +11°C° 0 mm 4 mps 760 mmHg 94%
    05:00 +12°C° 0 mm 4 mps 760 mmHg 91%
    06:00 +12°C° 0 mm 4 mps 761 mmHg 88%
    07:00 +13°C° 0 mm 5 mps 761 mmHg 83%
    08:00 +14°C° 0 mm 5 mps 761 mmHg 79%
    09:00 +15°C° 0 mm 5 mps 761 mmHg 74%
    10:00 +15°C° 0 mm 5 mps 761 mmHg 73%
    11:00 +16°C° 0 mm 5 mps 762 mmHg 73%
    12:00 +16°C° 0 mm 5 mps 762 mmHg 72%
    13:00 +16°C° 0 mm 5 mps 762 mmHg 72%
    14:00 +17°C° 0 mm 5 mps 762 mmHg 73%
    15:00 +17°C° 0 mm 5 mps 762 mmHg 73%
    16:00 +18°C° 0 mm 4 mps 762 mmHg 75%
    17:00 +18°C° 0 mm 3 mps 762 mmHg 77%
    18:00 +18°C° 0 mm 3 mps 762 mmHg 80%
    19:00 +17°C° 0 mm 3 mps 762 mmHg 81%
    20:00 +16°C° 0 mm 3 mps 763 mmHg 82%
    21:00 +14°C° 0 mm 3 mps 763 mmHg 83%
    22:00 +13°C° 0 mm 3 mps 763 mmHg 86%
    23:00 +12°C° 0 mm 3 mps 763 mmHg 90%

    2 July, Tuesday

    Time Temperature Precipitation Wind Pressure Humidity
    00:00 +11°C° 0 mm 3 mps 764 mmHg 93%
    01:00 +11°C° 0 mm 4 mps 764 mmHg 92%
    02:00 +10°C° 0 mm 4 mps 764 mmHg 92%
    03:00 +10°C° 0 mm 4 mps 764 mmHg 91%
    04:00 +10°C° 0 mm 4 mps 765 mmHg 91%
    05:00 +11°C° 0 mm 4 mps 765 mmHg 91%
    06:00 +12°C° 0 mm 4 mps 765 mmHg 91%
    07:00 +12°C° 0 mm 4 mps 765 mmHg 89%
    08:00 +13°C° 0 mm 4 mps 766 mmHg 86%
    09:00 +14°C° 0 mm 4 mps 766 mmHg 84%
    10:00 +14°C° 0.1 mm 4 mps 766 mmHg 82%
    11:00 +16°C° 0.1 mm 3 mps 766 mmHg 79%
    12:00 +17°C° 0.1 mm 3 mps 766 mmHg 76%
    13:00 +17°C° 0 mm 3 mps 766 mmHg 75%
    14:00 +17°C° 0 mm 2 mps 766 mmHg 74%
    15:00 +17°C° 0 mm 2 mps 766 mmHg 73%
    16:00 +17°C° 0 mm 2 mps 766 mmHg 75%
    17:00 +17°C° 0 mm 2 mps 766 mmHg 76%
    18:00 +16°C° 0 mm 2 mps 766 mmHg 78%
    19:00 +15°C° 0 mm 2 mps 766 mmHg 80%
    20:00 +14°C° 0 mm 2 mps 766 mmHg 81%
    21:00 +12°C° 0 mm 1 mps 767 mmHg 83%
    22:00 +12°C° 0 mm 1 mps 766 mmHg 85%
    23:00 +12°C° 0 mm 1 mps 766 mmHg 87%
    Show more